Printer-friendly version

IAU Minor Planet Center

Minor Planet Center

MPEC 2004-F23 : 2003 CP20

The following Minor Planet Electronic Circular may be linked-to from your own Web pages, but must not otherwise be redistributed electronically.


Read MPEC 2004-F22 Read MPEC 2004-F24


M.P.E.C. 2004-F23                                Issued 2004 Mar. 17, 22:23 UT

     The Minor Planet Electronic Circulars contain information on unusual
         minor planets and routine data on comets.  They are published
   on behalf of Commission 20 of the International Astronomical Union by the
          Minor Planet Center, Smithsonian Astrophysical Observatory,
                          Cambridge, MA 02138, U.S.A.

         Supported in part by the Steven and Michele Kirsch Foundation
             Prepared using the Tamkin Foundation Computer Network

                              MPC@CFA.HARVARD.EDU
          URL http://cfa-www.harvard.edu/iau/mpc.html  ISSN 1523-6714

                                   2003 CP20

                           Revision to MPEC 2003-C63

Additional Observations:
     K03C20P FC2004 03 14.76237 01 26 23.00 +01 32 15.4          16.9 R EF023540
     K03C20P  C2004 03 17.76403 01 42 57.40 +04 05 17.9          17.4 R EF023540
     K03C20P  C2004 03 17.76731 01 42 58.56 +04 05 27.4          17.2 R EF023540

Observer details:
540 Linz.  Observer E. Meyer.  0.6-m f/3.3 reflector + CCD.

First and last observations above in comparison with prediction:
Residuals in seconds of arc, reference and Delta-T
040314 540  1.6-  0.5-    040317 540  1.7-  2.3-    MPO 50745   +0.0010 day

Orbital elements:
2003 CP20
Epoch 2004 July 14.0 TT = JDT 2453200.5                 MPC
M 225.80866              (2000.0)            P               Q
n   1.54488463     Peri.  252.91175     +0.90731527     +0.02666325
a   0.7410918      Node   103.95285     +0.09342222     +0.96025497
e   0.3221414      Incl.   25.61753     -0.40994059     +0.27784790
P   0.64           H   16.5           G   0.15           U   4
Residuals in seconds of arc
030211 704  1.0-  1.2-    030216 926  0.1-  0.4+    030225 246  0.2+  0.1-
030211 704  1.6-  2.3-    030216 926  0.1+  0.1+    030225 246  0.0   0.1-
030211 704  0.8-  2.1-    030216 926  0.3+  0.5+    030225 246  0.1-  0.2-
030211 704  1.1-  2.5-    030216 349  1.0+  0.1+    030225 246  0.2+  0.0
030211 704 (1.2-  3.0-)   030216 349  0.7+  0.6-    030225 246  0.3+  0.1-
030212 636  0.2-  1.2+    030216 349  0.1+  0.1+    030225 557  0.1+  0.2+
030212 636  0.4-  1.0+    030216 349  0.0   0.0     030225 599  0.0   0.1-
030212 636  0.2+  0.4+    030217 649  0.0   0.0     030225 599  0.0   0.0
030212 118  0.4-  0.1+    030217 649  0.0   0.1+    030225 557  0.3+  0.3+
030212 118  0.1+  0.1+    030217 649  0.1+  0.1-    030225 599  0.3-  0.1-
030212 118  0.1+  0.3+    030217 926  0.5+  0.4+    030227 A38  0.7+  0.5+
030212 620  0.1+  0.4+    030217 926  0.3+  0.2+    030227 557  0.0   0.1+
030212 620  0.1+  0.3+    030217 926  0.2+  0.5+    030227 A38  0.4+  0.1-
030212 557  0.0   0.2+    030218 540  0.2+  0.3-    030227 557  0.1-  0.0
030212 620  0.5+  0.3+    030218 540  0.2-  0.3-    030227 557  0.1+  0.1-
030212 557  0.1+  0.3+    030218 540  0.5-  0.7+    030227 557  0.1+  0.1-
030213 636  0.9+  0.8+    030219 636  0.7-  0.4-    030227 557  0.1+  0.1-
030213 636  2.1+  0.7-    030219 636  0.3-  1.4-    030227 340  1.3-  0.7+
030213 636  0.2-  0.6-    030219 636  0.0   0.5+    030227 340  1.1-  1.3+
030213 636  0.4-  0.8+    030219 636  0.0   0.3+    030227 340  0.4-  1.0-
030213 118  0.1+  0.1+    030219 143  0.6-  0.1-    030227 340  1.0-  0.0
030213 118  0.0   0.0     030219 143  0.2-  0.2+    030302 557  0.1+  0.2-
030213 118  0.0   0.1-    030219 143  0.3-  0.0     030302 557  0.3+  0.3-
030213 118  0.1+  0.1+    030219 143  0.2-  0.2+    030302 557  0.0   0.2-
030213 118  0.2+  0.1+    030219 143  0.2-  0.4+    030302 557  0.1+  0.3-
030213 850  0.1-  0.3-    030219 017  2.6-  0.7-    030302 557  0.1+  0.4-
030213 850  0.3+  0.3-    030219 017  1.4+  2.1+    030303 084  0.2-  0.4-
030213 850  0.8-  0.7-    030219 017  2.3-  1.6-    030303 084  0.6-  0.1-
030213 850  0.3+  0.1+    030220 636  0.1+  0.4+    030303 084  0.1+  0.2-
030213 850  0.8-  0.3+    030220 636  0.9-  0.3+    030303 084  0.1-  0.3-
030213 850  0.5+  0.2+    030220 636  0.2+  0.4+    030304 084  0.2+  0.1-
030214 046  0.2-  0.9+    030220 636  0.0   0.2+    030306 670  0.8-  0.1-
030214 046  0.2-  0.3+    030220 017  0.4-  0.4+    030306 670  0.2+  0.1+
030214 046  1.1+  0.4-    030220 017  1.5-  1.2-    030309 084  0.2-  0.9-
030214 046  0.5+  0.5+    030220 017  0.3-  0.1-    030309 941  0.0   0.2-
030214 046  0.4-  0.4-    030220 017  0.7+  0.6+    030309 941  0.1-  0.7+
030214 046  0.8+  0.7+    030220 017  0.5-  2.8-    030309 941  0.3-  0.0
030214 046  0.3+  0.1+    030221 636  1.0+  0.3-    030309 941  0.0   0.1+
030214 046  0.4-  0.4+    030221 636  0.4-  0.0     030309 941  0.4+  0.1+
030214 046  0.6-  0.5+    030221 636  0.6-  0.3+    030309 170  0.6+  0.1+
030214 046  0.1+  0.4+    030221 636  0.1-  0.2+    030309 170  0.1-  0.2+
030214 046  0.2+  0.3+    030221 017  1.1+  0.0     030309 170  1.0+  0.2-
030214 557  0.0   0.1+    030221 670  0.3-  0.5+    030309 170  0.1+  0.7+
030214 557  0.1-  0.1+    030221 670  0.2+  0.0     030309 170  0.1+  0.1+
030214 557  0.1-  0.1+    030221 670  0.5-  0.0     030312 670  0.6+  0.4+
030214 557  0.4+  0.0     030222 636  0.9+  0.4+    030312 670  0.2+  0.1+
030214 557  0.1+  0.2+    030222 636  0.1-  0.1-    030312 670  0.0   0.4-
030215 636  0.4+  0.4+    030222 636  0.1+  0.8-    030316 204  0.4-  0.2-
030215 636  0.1-  0.1-    030223 636  1.4+  1.0-    030316 204  0.0   0.2+
030215 540  0.1-  0.3+    030223 636  0.3+  0.9-    030316 204  0.5-  0.4-
030215 636  0.1+  0.4-    030223 636  1.1-  2.2-    030316 204  0.3-  0.3-
030215 636  0.5+  1.6+    030224 557  0.2-  0.3+    030316 204  0.1-  0.2-
030215 540  0.1+  0.2+    030224 557  0.1-  0.3+    030326 084  1.1-  0.6-
030215 636  0.7+  0.7+    030224 636  0.4+  0.4+    030327 071  2.4+  1.1-
030215 540  0.1-  0.0     030224 557  0.1-  0.2+    030327 071  1.5+  0.2+
030215 046  0.6+  0.1+    030224 636  0.1+  0.0     030327 071  0.6-  1.0+
030215 046  0.5+  0.3-    030224 636  0.6-  0.3+    030329 084  0.7-  0.1-
030215 046  0.4+  0.2+    030224 557  0.1-  0.1+    030402 084  0.2-  0.1+
030215 046  0.5-  0.2-    030224 636  0.2+  0.0     030409 084  0.6-  0.1+
030215 046  0.2-  0.1-    030224 636  0.1+  0.2+    030420 118  0.5-  0.6+
030215 046  0.0   0.4+    030225 204  0.3-  0.4+    030420 118  0.2-  0.2+
030215 046  0.5+  0.2+    030225 204  0.4+  0.1+    030420 118  0.7-  0.2+
030215 106  0.5+  0.0     030225 204  0.5+  0.1+    030420 941  0.5+  0.1-
030215 106  0.0   1.5+    030225 204  0.6+  0.3+    030420 118  0.1-  0.0
030215 106  0.7-  0.9+    030225 204  0.1+  0.0     030420 941  0.0   0.3-
030216 213  1.0-  0.6-    030225 204  0.3+  0.1+    030420 941  0.1+  0.7-
030216 213  0.1+  1.0-    030225 557  0.1+  0.2+    030420 941  0.0   0.1-
030216 213  0.3-  0.0     030225 636  0.8+  0.1+    030420 941  0.8+  0.9+
030216 170  0.9-  0.2-    030225 636  0.5+  0.2-    030420 084  0.5-  0.2-
030216 170  0.7+  0.5+    030225 636  0.8-  0.7+    030426 084  0.5+  0.2+
030216 170  0.0   0.7+    030225 636  0.7+  0.3+    030502 084  0.1+  0.1-
030216 170  0.2+  0.0     030225 636  0.3-  0.6-    040314 540  0.4+  1.1+
030216 170  2.2+  0.4+    030225 557  0.0   0.2+    040317 540  1.0-  0.1-
030216 170  1.0+  0.6-    030225 246  0.0   0.1+    040317 540  0.3+  0.6-

Ephemeris:
2003 CP20                a,e,i = 0.74, 0.32, 26                  Q = 0.9798
Date    TT    R. A. (2000) Decl.     Delta      r     Elong.  Phase     V
2004 03 16    01 33.27   +02 35.4    1.276    0.606    27.6    49.5    17.8
2004 03 26    02 26.71   +10 57.8    1.250    0.674    32.5    52.7    18.1
2004 04 05    03 17.57   +18 36.8    1.247    0.740    36.4    53.4    18.3
2004 04 15    04 07.28   +25 04.4    1.260    0.801    39.5    52.7    18.5
2004 04 25    04 56.62   +30 07.4    1.283    0.855    41.7    51.5    18.6
2004 05 05    05 45.73   +33 43.0    1.311    0.899    43.2    50.2    18.7
2004 05 15    06 34.25   +35 54.3    1.339    0.934    44.1    48.9    18.8
2004 05 25    07 21.58   +36 47.8    1.364    0.959    44.6    47.9    18.9
2004 06 04    08 07.02   +36 32.0    1.383    0.975    44.8    47.2    18.9
2004 06 14    08 50.06   +35 15.1    1.393    0.980    44.7    46.8    18.9
2004 06 24    09 30.50   +33 05.2    1.395    0.975    44.3    46.8    18.9
2004 07 04    10 08.35   +30 08.6    1.386    0.961    43.9    47.2    18.9
2004 07 14    10 43.81   +26 29.9    1.366    0.936    43.3    48.1    18.8
2004 07 24    11 17.21   +22 12.0    1.333    0.902    42.5    49.6    18.7
2004 08 03    11 48.82   +17 15.7    1.287    0.858    41.7    51.9    18.6
2004 08 13    12 18.86   +11 40.1    1.227    0.805    40.7    55.2    18.5
2004 08 23    12 47.33   +05 22.0    1.152    0.745    39.6    60.0    18.3
2004 09 02    13 13.66   -01 42.2    1.060    0.678    38.2    66.9    18.1
2004 09 12    13 36.11   -09 35.3    0.950    0.611    36.3    76.9    18.0
2004 09 22    13 50.15   -18 07.2    0.826    0.551    33.3    91.4    18.0
2004 10 02    13 46.28   -26 14.7    0.701    0.511    28.6   110.4    18.5
2004 10 12    13 15.20   -30 43.2    0.603    0.504    23.3   128.4    19.5
2004 10 22    12 33.57   -27 47.9    0.563    0.533    24.1   130.4    19.6
2004 11 01    12 14.29   -19 54.7    0.577    0.587    31.8   116.9    18.8
2004 11 11    12 20.82   -12 06.3    0.618    0.653    40.1   102.2    18.3
2004 11 21    12 42.46   -06 07.7    0.664    0.720    46.8    90.9    18.1
2004 12 01    13 11.67   -01 50.1    0.705    0.784    52.0    82.8    18.1
2004 12 11    13 44.63   +01 14.5    0.737    0.840    56.2    77.0    18.1
2004 12 21    14 19.39   +03 30.1    0.760    0.887    59.5    72.9    18.2
2004 12 31    14 55.06   +05 12.5    0.776    0.925    62.1    70.0    18.2
2005 01 10    15 31.23   +06 32.0    0.785    0.953    64.1    68.2    18.3
2005 01 20    16 07.72   +07 34.9    0.788    0.971    65.4    67.1    18.3
2005 01 30    16 44.62   +08 23.6    0.786    0.979    66.0    66.8    18.3
2005 02 09    17 22.19   +08 58.6    0.780    0.978    66.0    67.2    18.3
2005 02 19    18 00.82   +09 18.4    0.771    0.966    65.2    68.3    18.3
2005 03 01    18 41.14   +09 19.4    0.760    0.945    63.7    70.1    18.2
2005 03 11    19 24.01   +08 58.0    0.748    0.913    61.4    72.7    18.2
2005 03 21    20 10.31   +08 10.3    0.739    0.872    58.1    75.9    18.2
2005 03 31    21 01.03   +06 55.5    0.738    0.822    54.0    79.4    18.2
2005 04 10    21 56.70   +05 20.9    0.750    0.764    49.1    82.9    18.2
2005 04 20    22 56.99   +03 46.0    0.786    0.699    43.9    85.0    18.2
2005 04 30    00 00.51   +02 44.0    0.853    0.631    38.5    84.1    18.1
2005 05 10    01 05.25   +02 52.8    0.956    0.568    33.4    78.5    17.9
2005 05 20    02 09.41   +04 37.1    1.092    0.520    28.3    67.3    17.6
2005 05 30    03 11.92   +07 52.2    1.245    0.502    22.9    51.8    17.4
2005 06 09    04 12.05   +11 57.3    1.392    0.521    17.4    35.6    17.3
2005 06 19    05 09.26   +15 57.1    1.520    0.569    12.2    22.1    17.3
2005 06 29    06 03.48   +19 12.2    1.625    0.633     7.7    12.5    17.3
2005 07 09    06 54.89   +21 26.6    1.710    0.700     4.3     6.2    17.4
2005 07 19    07 43.62   +22 38.5    1.778    0.765     2.9     3.8    17.5
2005 07 29    08 29.79   +22 53.2    1.833    0.823     4.2     5.1    17.8

Timothy B. Spahr             (C) Copyright 2004 MPC           M.P.E.C. 2004-F23

Read MPEC 2004-F22 Read MPEC 2004-F24


Our Web policy. Index to the CBAT/MPC/ICQ pages.


Valid HTML 4.01!